EW3692 Weather Reports


Display with metric or nautical units.
time (UTC)temp
F
wind
direction
speed
MPH
gust
MPH
rain 1hr
in
rain 24hr
in
rain mn
in
humidity
%
barometer
mb
20260504011521 48 169 0.0 0.0 0.00 0.00 0.00 69 1019.9
20260504010020 49 169 0.0 0.0 0.00 0.00 0.00 67 1019.7
20260504004522 50 169 0.0 0.0 0.00 0.00 0.00 65 1019.6
20260504003020 52 169 0.0 0.0 0.00 0.00 0.00 63 1019.4
20260504001519 53 169 0.0 0.0 0.00 0.00 0.00 60 1019.3
20260504000019 54 169 0.0 1.0 0.00 0.00 0.00 59 1019.4
20260503234518 55 169 0.0 0.0 0.00 0.00 0.00 60 1019.3
20260503233023 56 169 0.0 1.0 0.00 0.00 0.00 56 1019.3
20260503231517 56 169 0.0 2.0 0.00 0.00 0.00 55 1019.2
20260503230017 57 169 0.0 4.0 0.00 0.00 0.00 52 1019.2
20260503224516 57 167 0.0 4.0 0.00 0.00 0.00 52 1019.2
20260503223016 58 167 1.0 7.0 0.00 0.00 0.00 51 1019.2
20260503221526 59 122 0.0 4.0 0.00 0.00 0.00 49 1019.2
20260503220014 59 157 0.0 2.0 0.00 0.00 0.00 50 1019.3
20260503214514 60 189 0.0 2.0 0.00 0.00 0.00 50 1019.3
20260503213013 59 138 2.0 6.0 0.00 0.00 0.00 51 1019.3
20260503211514 59 177 2.0 8.0 0.00 0.00 0.00 51 1019.5
20260503210012 60 177 1.0 7.0 0.00 0.00 0.00 47 1019.5
20260503204512 60 175 2.0 9.0 0.00 0.00 0.00 49 1019.7
20260503203014 60 173 4.0 8.0 0.00 0.00 0.00 49 1019.7
20260503201511 61 175 4.0 9.0 0.00 0.00 0.00 50 1019.9
20260503200010 61 132 2.0 7.0 0.00 0.00 0.00 52 1020.1
20260503194509 60 165 3.0 8.0 0.00 0.00 0.00 54 1020.3
20260503193009 60 157 3.0 10.0 0.00 0.00 0.00 58 1020.5
20260503191509 61 115 4.0 9.0 0.00 0.00 0.00 58 1020.6
20260503190010 60 155 2.0 7.0 0.00 0.00 0.00 60 1020.8
20260503184513 60 160 3.0 11.0 0.00 0.00 0.00 57 1021.0
20260503183006 60 149 2.0 5.0 0.00 0.00 0.00 53 1020.9
20260503181506 58 169 1.0 7.0 0.00 0.00 0.00 48 1021.1
20260503180005 60 126 4.0 8.0 0.00 0.00 0.00 45 1021.2
20260503174503 59 46 2.0 5.0 0.00 0.00 0.00 43 1021.3
20260503173003 58 36 3.0 7.0 0.00 0.00 0.00 42 1021.6
20260503171502 60 57 1.0 4.0 0.00 0.00 0.00 45 1021.7
20260503081543 35 142 0.0 0.0 0.00 0.00 0.00 81 1019.3
20260503071551 37 142 0.0 0.0 0.00 0.00 0.00 80 1018.7
20260503054529 41 142 0.0 0.0 0.00 0.00 0.00 77 1018.5
20260503053021 42 142 0.0 0.0 0.00 0.00 0.00 75 1018.4
20260503051520 43 142 0.0 0.0 0.00 0.00 0.00 75 1018.4
20260503050028 43 142 0.0 2.0 0.00 0.00 0.00 75 1018.4
20260503044519 42 142 0.0 0.0 0.00 0.00 0.00 78 1018.6
20260503043015 42 142 0.0 0.0 0.00 0.00 0.00 78 1018.4
20260503041513 42 142 0.0 0.0 0.00 0.00 0.00 78 1018.1
20260503040010 41 142 0.0 0.0 0.00 0.00 0.00 77 1018.3
20260503034508 41 142 0.0 0.0 0.00 0.00 0.00 76 1018.0
20260503033007 41 142 0.0 0.0 0.00 0.00 0.00 77 1017.7
20260503031506 40 142 0.0 0.0 0.00 0.00 0.00 78 1017.8
20260503030004 40 142 0.0 0.0 0.00 0.00 0.00 77 1017.8
20260503024503 41 142 0.0 1.0 0.00 0.00 0.00 77 1017.6
20260503023000 41 142 0.0 0.0 0.00 0.00 0.00 76 1017.3
20260503021600 42 142 0.0 0.0 0.00 0.00 0.00 77 1017.1
20260503020055 43 142 0.0 0.0 0.00 0.00 0.00 76 1017.0
20260503014608 43 142 0.0 0.0 0.00 0.00 0.00 74 1016.9
20260503013051 44 142 0.0 0.0 0.00 0.00 0.00 73 1016.7